Torna al catalogo

THOR ABLESTAR DEB

AttivoLEO
NORAD 324·DEBRIS·🇺🇸 United States

Lanciato Jun 29, 1961 da Cape Canaveral Space Force Station

Loading…

Prossimi Passaggi (prossime 24 ore)

TLE

AggiornatoSource: Space-Track

Epoca: Sep 7, 2026, 05:14 UTC

1 00324U 61015DA  26250.21847243  .00000462  00000-0  28168-3 0  9998
2 00324  66.8693 183.6316 0071111 322.0878  37.5217 14.13467744334666

Traccia THOR ABLESTAR DEB in tempo reale con AllMySat

Download on the App Store